[[{"header":{"parameterUnit":"m.s-1","parameterCategory":1,"la1":30.2991,"la2":30.254,"lo1":-89.0895,"lo2":-89.0444,"dy":0.0017,"dx":0.0017,"nx":28,"ny":28,"refTime":"2025-09-15T09:00:00:Z","depth":0,"parameterNumber":2,"parameterNumberName":"U-component_of_WINDS"},"data":[0,0,0,0,0,0,0,0,0,0,0,0,0,0,0,0,0,0,0,0,0,0,0,0,0,0,0,0,0,0,0,0,0,0,0,0,0,0,0,0,0,0,0,0,0,0,0,0,0,0,0,0,0,0,0,0,0,0,0.6146,0.6145,0,0.6005,0.6004,0.6002,0.5955,0.5956,0.5957,0.5957,0.5809,0.5805,0.58,0,0,0,0,0,0,0,0,0,0,0,0,0,0.6372,0.6368,0.6146,0.6144,0.6143,0.6005,0.6003,0.6002,0.5955,0.5956,0.5957,0.5957,0.581,0.5805,0.58,0,0,0,0,0,0,0,0,0,0,0,0,0,0.6257,0.6367,0.6147,0.6103,0.6098,0.6006,0.6003,0.6001,0.5955,0.5956,0.5957,0.5958,0.5812,0.5806,0.5799,0.5739,0,0,0.5778,0.5775,0,0,0,0,0,0,0,0,0.6264,0.6249,0.6111,0.6106,0.61,0.5999,0.6029,0.5913,0.5955,0.6009,0.5957,0.5958,0.5871,0.586,0.5831,0.5732,0.5725,0.5778,0.5774,0.5771,0.5769,0,0,0,0,0,0,0,0.6272,0.6254,0.609,0.6109,0.6102,0.609,0.6074,0.6007,0.5937,0.6004,0.6001,0.5985,0.5868,0.5838,0.5827,0.5723,0.5778,0.5772,0.5768,0.5765,0.5567,0.5566,0,0,0,0,0,0,0.6287,0.6261,0.6095,0.6086,0.6186,0.6085,0.6068,0.603,0.5937,0.5924,0.5984,0.5983,0.5849,0.5835,0.5822,0.5745,0.5771,0.5764,0.576,0.5568,0.5567,0.5566,0,0,0,0,0,0,0.6292,0.6273,0.61,0.6173,0.615,0.608,0.6038,0.6027,0.5996,0.5922,0.5909,0.5966,0.5849,0.5831,0.576,0.5739,0.5761,0.5755,0.557,0.5568,0.5566,0.559,0,0,0,0,0,0,0.6299,0.6275,0.6252,0.6173,0.6146,0.6042,0.6037,0.6024,0.5985,0.5983,0.5902,0.5889,0.5848,0.577,0.5753,0.573,0.575,0.5571,0.5569,0.5567,0.5591,0.559,0.5588,0,0,0,0,0,0.6307,0.6264,0.6251,0.6231,0.6116,0.6041,0.6026,0.5981,0.5984,0.596,0.5912,0.5891,0.5744,0.5763,0.5744,0.5718,0.5572,0.557,0.5567,0.5592,0.559,0.5588,0,0,0,0,0,0,0.6341,0.6252,0.6237,0.6167,0.6112,0.6033,0.6001,0.598,0.5922,0.5922,0.5868,0.585,0.5783,0.5743,0.5766,0.5655,0.5657,0.5651,0.5683,0.568,0.5679,0.5689,0.5744,0,0,0,0,0,0.6341,0.6288,0.6213,0.6158,0.6131,0.6071,0.6037,0.6007,0.5947,0.5923,0.587,0.5812,0.5753,0.5715,0.5656,0.5586,0.5567,0.5558,0.5557,0.5556,0.5551,0.551,0.5505,0.5557,0.5557,0.5557,0,0,0.6338,0.6283,0.6253,0.6163,0.6117,0.6063,0.6052,0.5995,0.5953,0.5914,0.5844,0.5803,0.5734,0.5664,0.563,0.5629,0.5533,0.5553,0.5553,0.5547,0.5507,0.5502,0.5498,0.5555,0.5555,0.5556,0,0,0.6306,0.626,0.6209,0.6164,0.6094,0.6055,0.6043,0.5967,0.5939,0.5868,0.5838,0.5787,0.5686,0.5639,0.5601,0.5553,0.5531,0.5535,0.5527,0.5488,0.5484,0.548,0.5462,0.5456,0.553,0.553,0.553,0,0.6312,0.623,0.6185,0.613,0.6091,0.6055,0.6002,0.596,0.5875,0.5848,0.5849,0.5722,0.5673,0.559,0.5578,0.555,0.5533,0.5543,0.5489,0.5484,0.548,0.5462,0.5455,0.5531,0.5531,0.5531,0.5531,0,0.624,0.6183,0.615,0.607,0.6028,0.5974,0.5921,0.5883,0.5858,0.5818,0.5746,0.5686,0.5615,0.5593,0.5567,0.5506,0.5508,0.55,0.5501,0.5477,0.5459,0.5452,0.5532,0.5532,0.5531,0.5531,0,0,0.6223,0.6121,0.6109,0.6073,0.5994,0.5949,0.5894,0.5825,0.5794,0.5736,0.5688,0.5604,0.5596,0.5553,0.5522,0.5488,0.5452,0.5483,0.5481,0.5479,0.5381,0.5387,0.538,0.5439,0.5437,0.5436,0.5386,0,0.618,0.6081,0.604,0.5959,0.5906,0.5872,0.5823,0.577,0.5731,0.568,0.5637,0.5578,0.5572,0.5547,0.5512,0.5464,0.5432,0.5467,0.5391,0.5389,0.5409,0.5371,0.5377,0.5333,0.5379,0.5378,0.5377,0,0.6117,0.6061,0.5975,0.5904,0.588,0.5837,0.5771,0.5723,0.5661,0.5636,0.5589,0.556,0.5499,0.5506,0.5421,0.5447,0.5413,0.5385,0.5382,0.5372,0.5381,0.5358,0.5317,0.5311,0.5366,0.5367,0.5367,0,0.6113,0.6016,0.5952,0.5922,0.5837,0.5808,0.5771,0.571,0.5672,0.5614,0.5588,0.5524,0.5488,0.5438,0.5392,0.5401,0.5311,0.5314,0.5287,0.5288,0.5269,0.527,0.5221,0.5249,0.525,0.525,0.525,0,0.6068,0.6017,0.5949,0.5909,0.5851,0.5804,0.5747,0.5707,0.5654,0.5605,0.5572,0.5527,0.5469,0.5416,0.538,0.5315,0.5299,0.5276,0.5266,0.5278,0.5281,0.5254,0.5256,0.5248,0.5248,0.5249,0.5249,0,0.6053,0.6005,0.5933,0.586,0.584,0.58,0.5736,0.5696,0.5657,0.5596,0.5579,0.5517,0.5454,0.5403,0.532,0.5295,0.5226,0.5216,0.5248,0.5242,0.5218,0.5221,0.5149,0.5136,0.5175,0.5175,0.5175,0,0.6027,0.5987,0.591,0.5876,0.5839,0.5785,0.5746,0.5698,0.5659,0.5586,0.5554,0.5489,0.5434,0.5334,0.528,0.5216,0.5204,0.5183,0.5194,0.5207,0.5202,0.5205,0.52,0.5181,0.5181,0.5181,0.5181,0,0.5986,0.5965,0.5911,0.5849,0.5804,0.5752,0.5699,0.5673,0.5615,0.5573,0.5508,0.5466,0.5381,0.5316,0.5247,0.5208,0.5184,0.5178,0.5169,0.5179,0.5199,0.5187,0.5243,0.518,0.518,0.518,0.518,0.518,0.5964,0.5927,0.5867,0.5808,0.5764,0.5715,0.5674,0.5631,0.5576,0.5505,0.548,0.5413,0.5352,0.5257,0.5217,0.5164,0.5162,0.5148,0.5144,0.5141,0.5142,0.5209,0.5151,0.5151,0.5151,0.5151,0.5151,0,0.5921,0.5881,0.5827,0.5755,0.5709,0.5693,0.5634,0.5596,0.5538,0.5484,0.5431,0.5356,0.5293,0.5236,0.517,0.5138,0.5125,0.5122,0.5123,0.5114,0.5148,0.5163,0.5133,0.5133,0.5133,0.5133,0.5133,0.5133,0.5893,0.5829,0.5801,0.5715,0.5674,0.561,0.5578,0.5533,0.5489,0.5408,0.5356,0.532,0.5264,0.5194,0.5135,0.5119,0.5096,0.5095,0.5077,0.5109,0.5112,0.5114,0.5127,0.5091,0.5091,0.5047,0.5047,0.5046]},{"header":{"parameterUnit":"m.s-1","parameterCategory":1,"la1":30.2991,"la2":30.254,"lo1":-89.0895,"lo2":-89.0444,"dy":0.0017,"dx":0.0017,"nx":28,"ny":28,"refTime":"2025-09-15T09:00:00:Z","depth":0,"parameterNumber":3,"parameterNumberName":"V-component_of_WINDS"},"data":[0,0,0,0,0,0,0,0,0,0,0,0,0,0,0,0,0,0,0,0,0,0,0,0,0,0,0,0,0,0,0,0,0,0,0,0,0,0,0,0,0,0,0,0,0,0,0,0,0,0,0,0,0,0,0,0,0,0,-2.9282,-2.9282,0,-2.9252,-2.9251,-2.9251,-2.92,-2.9199,-2.9198,-2.9197,-2.9165,-2.9165,-2.9165,0,0,0,0,0,0,0,0,0,0,0,0,0,-2.9298,-2.9298,-2.9282,-2.9282,-2.9282,-2.9252,-2.9251,-2.9251,-2.92,-2.9199,-2.9198,-2.9197,-2.9165,-2.9165,-2.9165,0,0,0,0,0,0,0,0,0,0,0,0,0,-2.9281,-2.9298,-2.9282,-2.9253,-2.925,-2.9252,-2.9251,-2.9251,-2.92,-2.9199,-2.9198,-2.9196,-2.9165,-2.9165,-2.9165,-2.9193,0,0,-2.9165,-2.9165,0,0,0,0,0,0,0,0,-2.9282,-2.9281,-2.9258,-2.9255,-2.9251,-2.9228,-2.9245,-2.9231,-2.9201,-2.9219,-2.9197,-2.9196,-2.9187,-2.9185,-2.9182,-2.9191,-2.919,-2.9165,-2.9165,-2.9165,-2.9165,0,0,0,0,0,0,0,-2.9284,-2.9282,-2.927,-2.9257,-2.9254,-2.9241,-2.9237,-2.9242,-2.9211,-2.9217,-2.9214,-2.9211,-2.9185,-2.9182,-2.9181,-2.9189,-2.9165,-2.9165,-2.9165,-2.9165,-2.9223,-2.9224,0,0,0,0,0,0,-2.9289,-2.9283,-2.9271,-2.9269,-2.9264,-2.9242,-2.9238,-2.9237,-2.9211,-2.9206,-2.9212,-2.9209,-2.9183,-2.9181,-2.918,-2.9213,-2.9165,-2.9165,-2.9165,-2.9221,-2.9223,-2.9225,0,0,0,0,0,0,-2.929,-2.9288,-2.9272,-2.9275,-2.9272,-2.9243,-2.9243,-2.9237,-2.9235,-2.9207,-2.9201,-2.9215,-2.9182,-2.918,-2.9191,-2.9211,-2.9165,-2.9165,-2.9219,-2.9222,-2.9224,-2.9278,0,0,0,0,0,0,-2.929,-2.9289,-2.9299,-2.9276,-2.9272,-2.9284,-2.9244,-2.9238,-2.9235,-2.923,-2.9208,-2.9203,-2.9181,-2.9191,-2.9191,-2.921,-2.9165,-2.9217,-2.922,-2.9223,-2.9274,-2.9282,-2.9289,0,0,0,0,0,-2.9291,-2.9315,-2.93,-2.9299,-2.9284,-2.9285,-2.9283,-2.9257,-2.9237,-2.9247,-2.923,-2.9204,-2.9209,-2.9192,-2.9192,-2.9211,-2.9216,-2.922,-2.9223,-2.9271,-2.9281,-2.9288,0,0,0,0,0,0,-2.934,-2.9311,-2.9294,-2.9311,-2.9301,-2.9276,-2.9288,-2.9267,-2.9262,-2.9257,-2.9225,-2.922,-2.9236,-2.9224,-2.9207,-2.9239,-2.9208,-2.9212,-2.9246,-2.9254,-2.9261,-2.9264,-2.9165,0,0,0,0,0,-2.9353,-2.9356,-2.933,-2.9348,-2.9344,-2.9317,-2.9316,-2.9297,-2.9285,-2.9281,-2.9264,-2.9253,-2.9253,-2.9252,-2.925,-2.9273,-2.9268,-2.9286,-2.9293,-2.9299,-2.9303,-2.9316,-2.9324,-2.9236,-2.9236,-2.9236,0,0,-2.9379,-2.9364,-2.9367,-2.9357,-2.9347,-2.9352,-2.9314,-2.9319,-2.9323,-2.9281,-2.9291,-2.9279,-2.9265,-2.9282,-2.9289,-2.9273,-2.9326,-2.9303,-2.9308,-2.9309,-2.932,-2.9329,-2.9336,-2.9238,-2.9238,-2.9238,0,0,-2.943,-2.9418,-2.9432,-2.9424,-2.941,-2.9392,-2.9396,-2.9375,-2.9366,-2.9375,-2.9345,-2.9348,-2.9347,-2.9339,-2.9335,-2.9386,-2.9363,-2.9386,-2.9423,-2.9436,-2.9443,-2.9449,-2.9469,-2.9477,-2.9389,-2.939,-2.939,0,-2.9464,-2.947,-2.9442,-2.9451,-2.9448,-2.9412,-2.9427,-2.942,-2.9405,-2.9405,-2.9387,-2.9387,-2.9375,-2.9391,-2.9404,-2.9401,-2.9405,-2.9388,-2.9445,-2.945,-2.9456,-2.9474,-2.9482,-2.9393,-2.9392,-2.9392,-2.9392,0,-2.9514,-2.9518,-2.9532,-2.952,-2.9519,-2.9531,-2.9505,-2.9507,-2.9489,-2.9474,-2.9486,-2.947,-2.9465,-2.9467,-2.9449,-2.9482,-2.9473,-2.9451,-2.942,-2.9468,-2.9485,-2.9491,-2.9397,-2.9396,-2.9395,-2.9394,0,0,-2.9593,-2.9568,-2.9574,-2.9569,-2.9552,-2.9555,-2.9566,-2.9562,-2.9566,-2.9557,-2.9566,-2.9568,-2.9548,-2.9543,-2.9524,-2.9535,-2.9579,-2.9512,-2.9511,-2.9526,-2.9617,-2.9635,-2.9644,-2.9564,-2.9565,-2.9566,-2.9619,0,-2.9641,-2.9659,-2.9635,-2.9658,-2.9663,-2.963,-2.964,-2.9631,-2.9618,-2.962,-2.9605,-2.9607,-2.958,-2.9577,-2.9587,-2.9572,-2.9597,-2.9568,-2.9573,-2.9574,-2.9579,-2.9652,-2.967,-2.9721,-2.9625,-2.9626,-2.9627,0,-2.9699,-2.9696,-2.9719,-2.9703,-2.9705,-2.9714,-2.971,-2.9712,-2.9702,-2.9692,-2.9688,-2.9666,-2.9676,-2.9646,-2.9661,-2.9641,-2.9642,-2.9635,-2.9637,-2.9637,-2.9604,-2.9656,-2.9737,-2.9745,-2.9637,-2.9636,-2.9636,0,-2.9757,-2.9758,-2.9773,-2.977,-2.9751,-2.9759,-2.9751,-2.974,-2.974,-2.9736,-2.9736,-2.9733,-2.9732,-2.9731,-2.9709,-2.9689,-2.9728,-2.9695,-2.972,-2.9721,-2.973,-2.973,-2.9813,-2.9729,-2.9729,-2.9729,-2.9728,0,-2.9813,-2.983,-2.9799,-2.9808,-2.9826,-2.98,-2.9818,-2.9807,-2.9798,-2.9805,-2.9776,-2.9783,-2.9753,-2.9758,-2.9741,-2.9757,-2.9756,-2.9749,-2.9744,-2.9752,-2.9753,-2.9753,-2.9749,-2.9731,-2.973,-2.973,-2.9729,0,-2.9881,-2.9861,-2.9875,-2.9857,-2.9853,-2.9867,-2.9852,-2.986,-2.9846,-2.9856,-2.9856,-2.9834,-2.9838,-2.9816,-2.9815,-2.9804,-2.9829,-2.9818,-2.9833,-2.983,-2.9857,-2.9856,-2.9944,-2.9955,-2.9862,-2.9863,-2.9864,0,-2.9919,-2.9931,-2.9915,-2.9918,-2.9913,-2.9918,-2.9918,-2.9893,-2.9895,-2.9886,-2.9896,-2.9898,-2.9898,-2.9907,-2.989,-2.9891,-2.988,-2.9911,-2.988,-2.9888,-2.9883,-2.9883,-2.9885,-2.9918,-2.9919,-2.992,-2.9921,0,-2.9989,-2.9979,-2.9981,-2.9981,-2.9983,-2.9981,-2.9977,-2.9981,-2.9954,-2.9958,-2.9963,-2.9963,-2.9964,-2.9967,-2.9965,-2.9957,-2.9935,-2.9931,-2.9937,-2.9946,-2.9955,-2.9952,-2.9852,-2.9929,-2.9928,-2.9928,-2.9927,-2.9927,-3.0044,-3.0054,-3.0045,-3.0049,-3.0044,-3.0042,-3.005,-3.0037,-3.0041,-3.0041,-3.0025,-3.0034,-3.0025,-3.002,-3.0015,-3.0021,-3.0006,-3.0015,-3.0017,-3.002,-3.0026,-2.9953,-3.002,-3.002,-3.002,-3.002,-3.0019,0,-3.0114,-3.0107,-3.0111,-3.0108,-3.0112,-3.0092,-3.0087,-3.0092,-3.0099,-3.0094,-3.0095,-3.0102,-3.0105,-3.009,-3.0092,-3.01,-3.009,-3.0102,-3.0101,-3.01,-3.0038,-3.0033,-3.011,-3.011,-3.011,-3.011,-3.011,-3.011,-3.0151,-3.0168,-3.0158,-3.0173,-3.0166,-3.0174,-3.0174,-3.0172,-3.0168,-3.0177,-3.018,-3.017,-3.0162,-3.0163,-3.0166,-3.0161,-3.0164,-3.0179,-3.0171,-3.0113,-3.0104,-3.0096,-3.0092,-3.0179,-3.0179,-3.0233,-3.0234,-3.0234]}]]